Regional Weather Roundup
Issued by NWS Charleston, SC

Current Version | Previous Version | Text Only | Print | Product List | Glossary Off
Versions: 1 2 3 4 5 6 7 8 9 10 11 12 13 14 15 16 17 18 19 20 21 22 23 24 25 26 27 28 29 30 31 32 33 34 35 36 37 38 39 40 41 42 43 44 45 46 47 48 49 50
000 ASUS42 KCHS 252025 RWRCHS REGIONAL WEATHER ROUNDUP NATIONAL WEATHER SERVICE CHARLESTON SC 300 PM EST THU DEC 25 2014 NOTE: "FAIR" INDICATES FEW OR NO CLOUDS BELOW 12,000 FEET WITH NO SIGNIFICANT WEATHER AND/OR OBSTRUCTIONS TO VISIBILITY. NOT ALL STATIONS ARE QUALITY CONTROLLED BY THE NATIONAL WEATHER SERVICE. USE DATA WITH CAUTION...ESPECIALLY DEWPOINT OBSERVATIONS. SCZ027-030-031-034>040-042>050-252100- ...SOUTHEAST SOUTH CAROLINA... CITY SKY/WX TMP DP RH WIND PRES REMARKS N CHARLESTON MOSUNNY 60 38 43 NW5 30.13S WATERFRONT PRK N/A 61 N/A N/A NW5 N/A MOUNT PLEASANT FAIR 61 41 48 NW7 30.14R PINOPOLIS N/A 59 46 63 VRB3 30.07 MONCKS CORNER FAIR 61 41 48 CALM 30.14R SUMMERVILLE FAIR 61 41 48 N5 30.14S BEAUFORT MCAS SUNNY 60 39 45 W9 30.15S BEAUFORT ARPT FAIR 59 41 51 NW8 30.14S HILTON HEAD IS SUNNY 57 39 51 SW7 30.16F WALTERBORO CLEAR 61 34 36 NW6 30.14S ALLENDALE FAIR 59 37 44 VRB6 30.14S ...SOUTHERN MIDLANDS AND PEE DEE... CITY SKY/WX TMP DP RH WIND PRES REMARKS GEORGETOWN NOT AVBL KINGSTREE NOT AVBL ORANGEBURG SUNNY 59 37 44 W7 30.13S BARNWELL FAIR 61 37 41 W5 30.15S AIKEN FAIR 55 36 47 W7 30.17S MANNING FAIR 61 39 44 W5 30.13R COLUMBIA SUNNY 58 37 45 SW6 30.12S SUMTER SUNNY 60 39 46 W8 30.11R FLORENCE SUNNY 61 39 44 NW9 30.11R MYRTLE BEACH SUNNY 61 43 51 NW12 30.11R N MYRTLE BEACH SUNNY 60 42 51 VRB7 30.10R $$ GAZ063-065-086>088-099>101-113>116-118-119-134>141-150-252100- ...SOUTHEAST GEORGIA... CITY SKY/WX TMP DP RH WIND PRES REMARKS SAVANNAH ARPT MOSUNNY 60 38 43 NW9 30.15F HUNTER AAF SUNNY 60 40 46 NW8 30.13F FORT STEWART SUNNY 59 38 45 W10 30.15S STATESBORO SUNNY 58 40 50 NW6 30.15F SYLVANIA CLEAR 58 41 53 NW7 30.16S CLAXTON FAIR 59 41 51 W6 30.16F ...CSRA...CENTRAL AND FAR SOUTHEAST GEORGIA... CITY SKY/WX TMP DP RH WIND PRES REMARKS THOMSON SUNNY 57 41 55 W6 30.20R AUGUSTA-BUSH SUNNY 58 35 42 NW8 30.15S AUGUSTA-DANIEL SUNNY 57 35 43 VRB3 30.15S SWAINSBORO FAIR 59 41 51 W8 30.17S VIDALIA SUNNY 59 39 47 W6 30.17S EASTMAN FAIR 58 38 47 NW5 30.20S HAZLEHURST FAIR 59 39 47 CALM 30.16F ALMA SUNNY 58 36 43 NW8 30.17F WAYCROSS SUNNY 62 42 47 N7 30.17S JESUP FAIR 61 43 51 NW8 30.17S BAXLEY FAIR 59 37 44 NW8 30.17S BRUNSWICK SUNNY 61 41 48 W7 30.18S SAINT SIMONS SUNNY 58 40 51 W9 30.17S $$ SCZ027-028-034-036>038-045-046-048>050-GAZ119-141-252100- ...LAKE AND SUPPLEMENTAL COASTAL OBSERVATIONS... STATION/POSITION TIME TEMP WIND PRES WAVE SWELL AIR SEA DIR/SP/G HT/PER HT/PER/DIR (UTC) (F) (DEG/KT/KT) (MB) (FT/S) (FT/S/D) UPR LAKE MARION NOT AVBL WINYAH BAY 2000 59 310/ 6 1019.0S LAKE MURRAY 2000 55 250/ 6/ 11 1019.6S ACE BASIN NERRS 2000 58 310/ 2 1020.0S FORT PULASKI 2000 57 56 300/ 10/ 12 1021.4S SAPELO ISLAND 2000 58 300/ 7 1021.0S $$ ANZ835-935-AMZ111-154-330-350-352-354-370-450-454-472-252100- ...C-MAN AND BUOY OBSERVATIONS... STATION/POSITION TIME TEMP WIND PRES WAVE SWELL AIR SEA DIR/SP/G HT/PER HT/PER/DIR (UTC) (F) (DEG/KT/KT) (MB) (FT/S) (FT/S/D) BUOY 41004 2000 56 71 290/ 14/ 17 1020.0R 4/ 6 2/ 8 BUOY 41008 2000 53 58 290/ 10/ 14 1021.4R 2/ 3 2/ 80/10 FOLLY BEACH CMAN 2000 55 230/ 7/ 10 1020.9S CAPERS NEARSHORE 1900 54 250/ 12/ 12 N/A FRIPP NEARSHORE NOT AVBL STATION/POSITION TIME TEMP WIND PRES WAVE SWELL AIR SEA DIR/SP/G HT/PER HT/PER/DIR (UTC) (F) (DEG/KT/KT) (MB) (FT/S) (FT/S/D) 5E ST. MARYS GA 2000 61 N/A 1/10 FRYING PAN BUOY 2000 57 71 290/ 14/ 17 1019.7R 5/ 7 3/190/ 7 BUOY 41025 2000 58 1017.5R 6/ 9 CAPE LOOKOUT NC 2000 57 260/ 12/ 13 1017.9R BUOY 41002 1901 72 74 290/ 17/ 21 1018.8 9/ 7 5/270/ 8 BUOY 41010 2000 69 76 340/ 14/ 17 1020.8R 6/ 6 3/320/ 7 ST AUGUSTINE FL 2000 58 360/ 5/ 6 1021.9F $$

USA.gov is the U.S. government's official web portal to all federal, state and local government web resources and services.